User: anonymous   Login
Location: Caltech
(34.1382°N, 118.1253°W)
Time: 19:10:29
(UTC-07:00)
Language:

Cosmos 1980 Rocket - Orbit

View from above orbital plane
View from above orbital plane
View from above satellite
View from above satellite

Ground track
Ground track

The orbit data is extracted from the following two-line orbital elements,

1 19650U 88102B   17147.94294004 -.00000043 +00000-0 +23713-5 0  9991
2 19650 071.0006 057.6650 0015708 220.1085 139.8879 14.15756421472852
Epoch (UTC): 27 May 2017 22:37:50
Eccentricity: 0.0015708
inclination: 71.0006°
perigee height: 828 km
apogee height: 851 km
right ascension of ascending node: 57.6650°
argument of perigee: 220.1085°
revolutions per day: 14.15756421
mean anomaly at epoch: 139.8879°
orbit number at epoch: 47285

The dashed part of the orbit path shows where the satellite is in the earth's shadow,  

DLR